Wind_Speed
15 12 12 10 7 5 6 9 9 6 5 5 6 6 5 4 4 4 6 5 5 5 5 2 1 3 5 5 4 4 6 8 10 11 13 16 20 21 23 24 27 32 31 29 30
11 13 9 11 8 7 4 3 4 2 3 3 3 4 4 4 3 1 4 7 5 4 5 4 4 2 3 3 3 4 6 9 12 13 14 15 17 20 23 24 25 27 32 33 33
12 13 12 10 11 11 10 9 9 7 7 6 6 7 8 9 8 8 7 5 3 3 5 5 5 4 5 6 7 8 9 11 12 13 15 17 19 21 23 25 26 29 31 36 38
10 12 11 12 13 13 12 10 9 9 10 9 10 10 10 11 10 9 7 5 5 6 6 7 8 8 9 10 8 8 9 11 13 16 19 21 21 21 21 24 27 30 33 35 36
12 9 9 10 11 11 10 8 8 8 8 8 9 9 8 8 7 6 5 5 6 8 9 10 10 9 9 9 8 10 12 14 16 17 17 15 16 19 21 22 24 26 30 33 36
9 10 10 10 11 12 12 11 10 12 12 11 11 11 10 8 7 6 7 7 8 9 10 11 11 11 11 9 10 12 12 12 12 13 12 13 17 21 25 27 28 32 35 40 45
6 7 8 10 12 11 10 10 11 10 10 10 8 8 7 8 8 9 10 9 10 12 13 14 13 12 11 11 11 10 8 8 9 10 14 15 21 25 29 33 35 37 41 44 48
6 6 7 9 8 8 9 10 11 12 11 10 10 11 12 13 13 13 13 13 14 15 15 15 14 14 12 14 14 8 6 5 8 11 16 19 23 29 34 37 40 42 45 48 49
10 9 10 9 9 10 11 12 12 12 12 13 13 15 17 17 18 17 17 17 16 18 18 17 16 14 15 15 16 15 11 9 12 16 22 25 29 32 35 39 43 42 46 48 47
15 14 14 13 14 14 14 14 15 16 17 17 18 19 20 21 21 21 20 20 20 19 20 19 18 18 18 18 16 16 13 13 16 18 22 26 29 33 36 42 44 44 49 53 53
19 19 18 17 18 19 19 19 19 20 20 21 22 23 24 24 24 23 22 22 22 21 21 21 21 22 22 22 21 21 18 19 21 23 25 29 31 35 40 43 44 42 49 51 51
21 21 21 19 20 23 24 24 24 25 24 25 25 26 26 25 24 24 23 23 22 21 22 22 23 25 28 26 25 26 26 28 30 30 29 31 33 37 41 42 42 43 48 48 51
23 23 22 22 23 24 26 27 27 26 25 26 26 25 24 24 24 23 23 22 23 23 23 24 26 28 32 33 31 33 34 36 36 36 36 37 38 40 44 43 41 46 45 49 53
22 25 25 23 23 25 24 27 27 27 27 26 27 26 25 25 25 24 24 23 23 23 24 26 28 29 33 38 40 41 41 42 43 44 42 41 42 42 44 42 42 45 46 51 52
11 14 18 20 20 21 22 23 25 28 31 29 26 25 25 26 26 25 24 24 25 25 25 27 28 29 32 35 41 42 42 43 44 44 44 39 40 42 43 39 43 44 48 48 47
15 15 17 17 18 19 20 22 23 24 28 30 29 28 26 25 25 26 27 24 25 25 26 26 26 28 30 32 35 36 39 41 42 42 40 38 39 39 38 38 44 43 49 46 48
21 21 22 22 23 23 23 23 24 22 25 28 29 30 29 28 25 24 25 26 25 24 24 25 26 28 29 31 33 35 36 38 40 38 37 34 36 36 36 38 38 42 48 48 49
26 27 28 27 28 28 28 26 23 23 25 25 28 29 29 27 27 27 28 26 24 24 25 26 26 28 29 31 32 34 35 36 39 39 38 35 35 35 33 37 39 42 47 49 52
32 32 32 32 32 31 30 27 25 26 27 27 27 26 24 25 28 27 27 27 27 27 26 27 27 28 30 32 33 34 35 36 37 36 37 37 35 33 34 37 41 42 46 51 53
39 39 39 37 37 36 34 30 28 28 31 32 29 29 25 26 28 28 29 27 28 27 28 28 31 29 31 32 33 34 35 36 36 36 36 35 35 37 34 41 45 45 45 49 53
43 43 43 44 43 42 39 34 33 33 33 33 32 32 29 28 29 30 30 28 27 28 30 30 31 31 31 32 33 34 34 34 34 33 34 37 34 33 38 39 45 44 43 45 51
51 51 45 48 49 47 43 39 37 36 38 36 34 32 31 32 32 32 31 30 28 29 30 30 34 32 32 33 34 35 32 33 34 33 34 36 36 38 38 39 44 45 41 42 50
58 56 56 52 53 50 48 46 44 41 40 41 39 35 33 33 35 35 33 30 31 32 32 33 35 34 35 35 36 35 32 32 34 33 34 41 39 35 40 41 43 47 42 44 49
65 63 61 57 56 52 49 48 47 46 44 44 42 42 38 38 41 41 35 35 36 36 35 36 35 33 35 37 39 38 33 32 36 33 38 37 42 30 38 41 43 49 44 44 46
64 65 66 58 58 55 52 54 50 48 47 45 46 43 45 46 44 40 41 40 39 39 38 38 40 37 35 36 39 38 35 34 37 31 40 34 43 44 40 42 43 48 44 44 46
62 53 55 57 53 58 57 53 54 51 49 50 50 44 48 47 47 47 46 48 48 46 43 42 44 40 40 38 39 41 34 35 36 35 38 38 38 42 38 40 43 47 48 46 47
67 71 61 70 65 62 59 57 50 51 54 55 51 50 49 42 43 43 44 43 44 42 44 45 45 45 46 42 42 41 33 35 36 33 33 36 36 38 38 38 42 46 50 47 46
Wind_Direction
272 285 289 311 321 324 311 294 286 292 307 312 308 311 304 288 284 267 258 234 229 263 268 255 291 8 350 343 346 341 337 330 329 329 325 324 321 321 317 316 313 312 312 309 304
231 254 244 280 251 270 206 235 214 211 242 248 242 242 247 239 260 200 243 207 203 234 256 265 273 296 312 319 338 347 336 332 330 329 330 332 325 323 320 318 314 313 312 312 310
213 220 216 223 226 213 206 199 202 191 194 200 209 224 217 207 185 197 208 194 217 263 263 264 258 286 297 305 315 320 323 325 322 322 323 320 315 317 315 313 312 312 312 311 309
214 212 215 217 219 221 211 214 209 203 201 196 192 196 193 187 175 184 207 219 238 252 265 284 277 284 288 292 301 313 317 316 317 317 316 318 321 325 330 330 330 327 322 318 316
219 217 216 216 219 219 205 206 197 186 179 175 178 185 183 190 203 207 225 256 276 278 288 288 288 290 292 290 305 316 319 317 317 317 321 335 353 2 359 354 350 345 350 340 330
187 191 193 193 186 175 164 165 174 175 179 182 191 196 201 207 215 232 252 264 271 281 286 286 294 296 288 295 305 307 315 318 323 331 345 346 356 358 2 1 353 352 347 345 344
131 142 142 152 153 157 159 175 188 196 203 207 218 233 251 261 267 267 267 273 278 277 290 292 296 296 287 287 292 305 320 319 337 356 2 5 352 356 354 352 346 343 343 341 340
184 180 179 176 172 178 185 199 207 211 225 236 251 262 277 279 278 277 272 274 275 274 279 285 290 284 274 273 277 284 306 310 342 350 346 350 348 346 346 343 342 341 337 337 336
218 218 220 218 216 215 216 221 233 244 251 260 266 273 278 275 275 271 269 275 278 276 276 279 279 270 254 259 268 276 279 297 324 333 339 341 342 342 341 337 335 332 331 333 332
244 242 246 244 245 245 247 249 250 257 262 268 274 279 278 279 278 277 275 276 280 278 275 273 274 254 243 253 265 266 271 291 307 310 319 327 331 332 331 330 330 328 327 327 328
245 252 251 255 260 260 259 258 262 265 269 271 273 277 279 280 280 279 277 279 279 274 273 272 269 249 245 256 260 263 267 278 285 291 297 306 317 324 325 325 322 320 324 323 327
247 251 253 258 268 270 269 268 267 268 270 271 274 275 275 276 277 279 279 280 280 275 271 269 267 254 249 255 254 264 268 273 276 280 286 292 303 316 320 317 315 320 322 323 327
249 253 255 262 265 270 270 270 270 270 272 275 274 273 276 277 279 281 280 280 279 278 276 273 270 261 253 254 257 262 267 271 275 280 290 293 296 305 312 314 313 322 323 323 326
250 251 254 260 271 272 271 268 270 270 271 271 271 274 277 278 277 277 277 277 276 277 278 276 273 270 265 260 262 266 273 277 283 287 293 297 301 303 309 313 315 323 324 327 326
265 266 264 261 264 268 271 273 271 272 272 267 266 267 269 271 271 270 271 272 275 276 276 276 274 274 274 273 271 276 283 289 292 294 295 298 299 304 310 316 318 325 330 329 326
260 258 261 268 273 273 275 276 277 273 271 266 265 265 269 270 270 266 270 272 274 275 276 275 276 277 278 280 283 286 289 291 293 295 294 294 298 308 315 318 325 328 331 331 327
258 260 264 265 268 269 275 280 280 283 279 268 265 266 269 269 268 265 265 269 272 276 278 280 280 281 281 284 286 290 293 295 294 294 295 299 304 315 319 322 326 328 332 329 328
258 262 266 263 265 268 271 274 277 276 274 275 268 266 267 262 265 268 270 269 268 271 275 277 278 280 282 284 288 291 295 298 299 301 302 305 307 314 316 319 330 330 331 326 326
264 263 262 264 266 267 269 271 273 274 270 267 267 270 273 271 272 270 271 271 275 276 278 280 279 280 284 288 292 295 297 298 299 299 298 299 302 313 313 319 330 327 329 326 325
258 259 260 260 262 265 268 272 270 265 266 269 269 268 263 265 267 270 270 275 274 280 281 282 284 284 285 288 290 293 297 299 298 299 300 302 307 316 315 322 331 329 329 324 323
259 259 257 256 256 258 260 264 267 266 263 264 265 266 268 265 267 268 272 270 276 281 283 285 285 285 286 287 290 293 296 295 295 297 301 304 314 314 317 323 327 328 324 324 321
264 264 258 259 259 257 261 261 257 261 264 263 264 263 264 266 266 268 270 272 278 278 281 285 287 289 288 289 291 293 294 293 293 296 298 304 312 315 313 319 324 324 321 320 322
264 265 265 259 258 260 259 260 259 256 256 260 264 264 265 265 267 266 269 274 276 278 282 285 289 292 291 291 292 293 294 292 293 298 302 298 312 316 312 317 321 325 325 323 321
268 263 259 260 261 259 260 259 258 259 258 258 262 266 268 267 266 268 273 272 272 276 281 285 288 289 293 294 294 295 292 293 295 301 297 309 304 316 312 316 318 324 326 320 320
265 266 263 262 264 261 259 260 256 260 261 263 263 265 266 268 269 273 271 273 274 277 280 283 285 288 290 289 289 291 291 293 295 302 298 306 302 306 309 312 319 320 323 322 320
254 260 267 264 262 259 258 261 263 261 262 261 259 262 264 267 269 269 271 274 275 276 279 280 283 286 288 286 287 288 294 292 297 302 299 298 306 305 307 310 314 317 325 324 319
252 256 265 257 258 255 255 258 258 258 257 257 260 262 261 263 266 269 270 269 272 276 278 279 281 284 285 285 284 285 291 291 295 296 299 304 309 308 310 313 314 318 323 322 320
Height
5804 5806 5808 5809 5810 5811 5811 5812 5813 5813 5815 5816 5818 5819 5819 5821 5824 5825 5826 5827 5828 5829 5829 5829 5829 5829 5829 5828 5829 5828 5829 5828 5828 5828 5828 5827 5826 5826 5825 5825 5821 5820 5820 5821 5820
5803 5805 5806 5808 5809 5811 5810 5812 5813 5812 5814 5816 5817 5819 5820 5821 5823 5825 5826 5826 5827 5829 5829 5828 5828 5827 5827 5827 5827 5827 5827 5827 5826 5825 5825 5825 5823 5822 5821 5820 5818 5817 5814 5814 5814
5800 5802 5804 5806 5808 5809 5810 5811 5812 5813 5814 5815 5817 5819 5819 5821 5823 5824 5826 5826 5826 5827 5827 5827 5826 5826 5827 5826 5826 5825 5825 5824 5823 5822 5822 5821 5820 5819 5818 5816 5815 5813 5811 5808 5805
5800 5801 5802 5804 5805 5807 5809 5811 5811 5812 5814 5815 5816 5818 5818 5820 5823 5822 5824 5825 5826 5826 5826 5825 5824 5824 5825 5825 5824 5823 5821 5821 5821 5820 5819 5818 5817 5816 5814 5811 5809 5808 5805 5803 5800
5799 5799 5800 5802 5804 5806 5807 5808 5810 5811 5813 5815 5817 5819 5819 5820 5821 5823 5822 5822 5823 5824 5824 5823 5823 5822 5822 5821 5820 5820 5820 5819 5818 5818 5816 5815 5813 5811 5809 5808 5805 5802 5800 5797 5794
5798 5799 5800 5801 5803 5804 5805 5807 5810 5812 5813 5815 5817 5817 5818 5819 5820 5821 5821 5822 5822 5822 5822 5822 5821 5821 5820 5819 5819 5818 5817 5816 5815 5815 5813 5812 5810 5808 5806 5802 5799 5796 5792 5788 5784
5799 5801 5800 5803 5803 5805 5806 5808 5810 5811 5813 5815 5816 5817 5818 5819 5818 5818 5819 5819 5819 5819 5820 5820 5819 5819 5818 5817 5816 5815 5815 5813 5813 5811 5810 5808 5805 5802 5799 5796 5794 5791 5787 5783 5778
5804 5804 5804 5805 5805 5807 5807 5809 5811 5813 5814 5814 5815 5816 5816 5816 5816 5816 5816 5816 5817 5817 5817 5816 5816 5816 5814 5814 5813 5813 5813 5811 5809 5807 5805 5803 5801 5798 5794 5791 5787 5783 5780 5776 5771
5802 5802 5805 5805 5806 5807 5809 5810 5811 5812 5812 5813 5813 5814 5814 5814 5814 5814 5814 5814 5813 5813 5813 5812 5812 5812 5811 5811 5810 5808 5807 5806 5804 5802 5800 5797 5795 5792 5790 5786 5783 5779 5774 5769 5763
5800 5801 5802 5802 5805 5807 5807 5807 5808 5809 5810 5810 5811 5813 5812 5812 5811 5810 5810 5810 5810 5809 5810 5809 5808 5808 5807 5806 5806 5804 5802 5801 5800 5800 5796 5793 5790 5787 5784 5780 5775 5770 5765 5759 5754
5797 5799 5800 5800 5802 5804 5804 5804 5806 5807 5807 5807 5808 5808 5808 5808 5808 5807 5807 5806 5806 5806 5805 5805 5804 5804 5803 5802 5800 5800 5798 5796 5795 5794 5791 5788 5785 5781 5778 5774 5769 5764 5758 5751 5745
5793 5794 5796 5797 5798 5800 5800 5800 5801 5803 5803 5803 5802 5802 5803 5803 5803 5802 5802 5803 5801 5801 5801 5801 5799 5799 5798 5797 5796 5795 5794 5792 5790 5787 5785 5782 5779 5775 5771 5768 5763 5757 5750 5744 5737
5787 5789 5790 5792 5793 5794 5794 5795 5795 5796 5797 5797 5797 5798 5798 5798 5798 5797 5798 5796 5796 5795 5795 5795 5795 5793 5793 5792 5791 5789 5787 5785 5784 5782 5779 5776 5774 5769 5765 5760 5755 5749 5742 5736 5728
5783 5784 5786 5787 5789 5788 5788 5788 5789 5790 5791 5792 5792 5792 5792 5792 5793 5792 5792 5792 5791 5790 5790 5790 5789 5787 5787 5786 5785 5783 5781 5779 5777 5775 5773 5768 5765 5761 5759 5753 5746 5739 5734 5727 5718
5778 5779 5780 5780 5781 5781 5781 5781 5782 5783 5783 5785 5785 5786 5786 5788 5787 5786 5786 5786 5785 5785 5785 5784 5782 5781 5780 5779 5778 5776 5774 5772 5770 5767 5765 5761 5756 5751 5748 5743 5737 5731 5724 5717 5708
5774 5774 5775 5776 5777 5776 5776 5776 5777 5778 5777 5778 5778 5778 5779 5779 5779 5779 5779 5780 5779 5778 5778 5776 5775 5774 5772 5771 5770 5768 5765 5763 5761 5758 5757 5753 5747 5743 5739 5734 5727 5721 5716 5707 5700
5768 5769 5770 5770 5771 5770 5771 5772 5772 5771 5771 5770 5770 5771 5772 5773 5774 5773 5773 5773 5772 5772 5771 5769 5768 5767 5766 5765 5762 5760 5758 5755 5754 5751 5749 5745 5740 5734 5730 5725 5722 5716 5708 5699 5692
5761 5763 5763 5763 5763 5764 5765 5767 5766 5766 5765 5763 5764 5765 5766 5766 5767 5766 5766 5766 5765 5764 5763 5763 5763 5761 5759 5757 5756 5753 5751 5749 5744 5742 5739 5736 5733 5728 5724 5719 5714 5707 5699 5692 5684
5754 5755 5755 5756 5756 5756 5758 5758 5759 5760 5759 5758 5758 5758 5760 5760 5760 5760 5759 5760 5759 5758 5757 5755 5754 5753 5752 5750 5749 5746 5744 5741 5737 5734 5732 5729 5726 5724 5716 5711 5706 5699 5692 5684 5676
5746 5747 5747 5747 5747 5748 5750 5752 5751 5750 5750 5751 5752 5752 5754 5753 5753 5752 5752 5754 5752 5752 5750 5749 5747 5747 5745 5743 5741 5739 5737 5734 5731 5727 5723 5721 5718 5711 5707 5701 5695 5690 5685 5677 5668
5735 5735 5738 5738 5737 5738 5740 5743 5744 5743 5742 5742 5744 5744 5746 5746 5745 5745 5745 5746 5745 5745 5743 5742 5741 5742 5740 5737 5735 5733 5730 5727 5724 5721 5715 5712 5713 5704 5699 5694 5689 5684 5678 5671 5662
5723 5724 5727 5726 5728 5728 5731 5732 5733 5734 5734 5734 5735 5736 5737 5737 5736 5736 5737 5737 5737 5737 5736 5735 5733 5733 5733 5731 5728 5725 5723 5719 5716 5715 5709 5706 5706 5698 5693 5688 5684 5679 5672 5663 5652
5708 5710 5713 5715 5715 5719 5721 5723 5723 5724 5723 5724 5726 5728 5729 5729 5728 5728 5729 5730 5729 5728 5727 5727 5726 5725 5724 5725 5721 5718 5716 5712 5709 5707 5704 5697 5698 5692 5685 5681 5676 5671 5663 5654 5646
5690 5693 5696 5700 5704 5706 5709 5711 5713 5714 5714 5714 5716 5718 5719 5719 5718 5719 5721 5721 5720 5719 5719 5718 5718 5718 5717 5715 5712 5710 5709 5705 5701 5699 5694 5693 5687 5686 5679 5673 5669 5661 5654 5647 5638
5673 5675 5677 5683 5691 5695 5696 5698 5700 5702 5704 5706 5707 5707 5707 5708 5709 5711 5709 5709 5710 5711 5710 5709 5709 5709 5709 5706 5703 5702 5701 5698 5694 5694 5685 5687 5678 5677 5669 5665 5661 5655 5649 5640 5630
5658 5658 5662 5667 5674 5677 5680 5687 5688 5691 5694 5694 5694 5694 5695 5697 5697 5698 5699 5700 5700 5701 5701 5700 5699 5700 5700 5698 5695 5692 5695 5690 5688 5685 5680 5676 5674 5668 5665 5659 5654 5647 5640 5633 5625
5641 5644 5647 5648 5656 5658 5665 5672 5676 5675 5678 5680 5682 5682 5685 5687 5685 5686 5686 5688 5689 5689 5689 5689 5689 5689 5687 5688 5687 5684 5688 5684 5681 5678 5674 5669 5666 5659 5657 5651 5646 5640 5633 5627 5619